Great Falls, MT

3:44 AM MST on February 22, 2017 (GMT -0700)
Great Falls International

Weather History for KGTF - July, 2013

Change the Weather History Date:

Monday, July 8, 2013

  Actual Average Record
Temperature  
Mean Temperature 67 °F 66 °F  
Max Temperature 84 °F 82 °F 101 °F (1930)
Min Temperature 49 °F 50 °F 41 °F (1996)
Degree Days  
Heating Degree Days 0 2  
Month to date heating degree days 5 21  
Since 1 June heating degree days 170 212  
Since 1 July heating degree days 5 21  
Cooling Degree Days 2 3  
Month to date cooling degree days 54 21  
Year to date cooling degree days 84 60  
Since 1 June cooling degree days 81 53  
Growing Degree Days 17 (Base 50)    
Moisture  
Dew Point 52 °F    
Average Humidity 65    
Maximum Humidity 100    
Minimum Humidity 30    
Precipitation  
Precipitation 0.07 in 0.06 in 0.98 in (1922)
Month to date precipitation 0.07 0.47  
Year to date precipitation 7.51 8.73  
Snow  
Snow 0.00 in 0.00 in T in (2000)
Month to date snowfall 0.0 0.0  
Since 1 June snowfall 0.0 0.3  
Since 1 July snowfall 0.0 0.0  
Snow Depth 0.00 in    
Sea Level Pressure  
Sea Level Pressure 29.94 in    
Wind  
Wind Speed 8 mph (NW)    
Max Wind Speed 39 mph    
Max Gust Speed 56 mph    
Visibility 10 miles    
Events Rain    
T = Trace of Precipitation, MM = Missing Value Source: NWS Daily Summary

Daily Weather History Graph

Daily Weather History Graph

Search for Another Location

Airport or City:

Trip Planner

Search our weather history database for the weather conditions in past years. The results will help you decide how hot, cold, wet, or windy it might be!

Date:

Astronomy

Jul. 08, 2013 Rise Set
Actual Time 5:37 AM MDT 9:23 PM MDT
Civil Twilight 4:58 AM MDT 10:02 PM MDT
Nautical Twilight 4:04 AM MDT 10:55 PM MDT
Astronomical Twilight 2:47 AM MDT 12:12 AM MDT
Moon 6:17 AM MDT (7/8) 9:18 PM MDT (7/8)
Length of Visible Light 17h 04m
Length of Day
15h 45m
New Moon, 0% of the Moon is Illuminated
Jul 8
New Moon
Jul 15
First Quarter
Jul 22
Full
Jul 29
Last Quarter
Aug 6
New

Hourly Weather History & Observations

Time (MDT) Temp. Dew Point Humidity Pressure Visibility Wind Dir Wind Speed Gust Speed Precip Events Conditions
12:53 AM 66.0 °F 55.0 °F 68% 29.86 in 10.0 mi NE 13.8 mph - N/A   Partly Cloudy
1:53 AM 63.0 °F 55.9 °F 78% 29.88 in 10.0 mi North 3.5 mph - 0.00 in   Mostly Cloudy
2:53 AM 60.1 °F 55.9 °F 86% 29.90 in 10.0 mi WNW 9.2 mph - 0.00 in Rain Light Rain
3:53 AM 59.0 °F 55.9 °F 90% 29.91 in 10.0 mi West 8.1 mph - 0.00 in   Overcast
4:53 AM 57.9 °F 55.9 °F 93% 29.88 in 10.0 mi North 10.4 mph - 0.05 in   Partly Cloudy
5:53 AM 55.9 °F 55.0 °F 97% 29.90 in 10.0 mi West 5.8 mph - N/A   Partly Cloudy
6:53 AM 59.0 °F 55.9 °F 90% 29.87 in 10.0 mi Calm Calm - N/A   Mostly Cloudy
7:53 AM 60.1 °F 55.9 °F 86% 29.88 in 10.0 mi Calm Calm - N/A   Clear
8:53 AM 64.9 °F 57.0 °F 75% 29.89 in 10.0 mi Calm Calm - N/A   Clear
9:24 AM 60.8 °F 55.4 °F 82% 30.04 in 10.0 mi West 16.1 mph 27.6 mph 0.00 in Rain Light Rain
9:41 AM 59.0 °F 55.4 °F 88% 30.01 in 5.0 mi NW 19.6 mph 31.1 mph 0.02 in Rain Light Rain
9:53 AM 57.9 °F 55.0 °F 90% 29.95 in 10.0 mi NNW 19.6 mph 29.9 mph 0.02 in Rain Light Rain
10:53 AM 62.1 °F 52.0 °F 70% 29.98 in 10.0 mi North 6.9 mph - N/A   Mostly Cloudy
11:53 AM 66.9 °F 53.1 °F 61% 29.96 in 10.0 mi SE 13.8 mph - N/A   Overcast
12:53 PM 66.0 °F 53.1 °F 63% 29.97 in 10.0 mi ESE 6.9 mph - N/A   Overcast
1:53 PM 69.1 °F 51.1 °F 53% 29.96 in 10.0 mi ESE 5.8 mph - N/A   Overcast
2:53 PM 73.0 °F 53.1 °F 49% 29.88 in 10.0 mi SE 9.2 mph - 0.00 in   Clear
3:53 PM 79.0 °F 48.9 °F 35% 29.85 in 10.0 mi SSW 6.9 mph - N/A   Clear
4:53 PM 81.0 °F 46.0 °F 29% 29.84 in 10.0 mi WSW 6.9 mph 17.3 mph N/A   Clear
5:53 PM 81.0 °F 48.9 °F 33% 29.83 in 10.0 mi South 10.4 mph - N/A   Clear
6:31 PM 82.4 °F 37.4 °F 20% 29.90 in 10.0 mi West 23.0 mph 36.8 mph N/A   Partly Cloudy
6:53 PM 68.0 °F 51.1 °F 55% 29.88 in 8.0 mi NNW 35.7 mph 56.4 mph N/A   Clear
7:00 PM 66.2 °F 51.8 °F 60% 29.96 in 10.0 mi North 28.8 mph 48.3 mph N/A   Clear
7:53 PM 63.0 °F 48.9 °F 60% 29.97 in 6.0 mi North 17.3 mph 25.3 mph N/A   Haze
8:53 PM 60.1 °F 48.0 °F 64% 30.01 in 10.0 mi East 5.8 mph - N/A   Clear
9:53 PM 55.9 °F 48.9 °F 77% 30.08 in 10.0 mi SSW 5.8 mph - N/A   Partly Cloudy
10:53 PM 52.0 °F 48.0 °F 86% 30.10 in 10.0 mi West 6.9 mph - N/A   Partly Cloudy
11:53 PM 53.1 °F 48.0 °F 83% 30.12 in 10.0 mi NNW 6.9 mph - N/A   Scattered Clouds